Kuiper-00082

operational
NORAD ID: 64828 Int'l Des: 2025-151 Owner: KUIP Country: US Constellation: kuiper
LEOCIRCULAR

About Kuiper-00082

Description loading...

Live Position

Loading 3D Globe...

Upcoming Passes

Altitude History

Altitude vs Time

uPlot chart will show altitude changes over time

Two-Line Element Set

1 64828U 25151N 25314.65086493 .00006323 00000-0 85642-3 0 9990
2 64828 51.8997 94.4698 0004727 235.7008 124.3508 14.79992663 17854
Epoch: Nov 10, 2025 • Age: 28 hours

Current Status

Altitude 628.2 km
Velocity 7.55 km/s
Sub-Earth Point 8.68°N, 87.78°W
Launch Date Jul 16, 2025
Age 0.3 years
Type internet

Technical Details

Classification Payload
Mass 490.00 kg
Dry Mass 490.00 kg
Total Mass 490.00 kg
Length 1.80 m
Diameter 0.70 m
Span 5.00 m
Shape Box + 2 pan
Manufacturer KUIP
Bus Type Kuiper
Phase Status In Orbit
Owner/State KUIP/US

Large Constellations

Loading constellations...